Погода в Ступине

Россия / Астраханская область     48°18′16″N   45°47′08″E
темп.,
°C
ветер,
м/с
пор.,
м/с
влажн.,
%
обл.,
%
осадки,
мм/ч
давл.,
гПа
погр.,
м
20 апреля, вт
вт2001:00+12всв239896 0.1 1014112
04:00+12вюв2298100 0.5 101358
07:00+13вюв2394100 0.0 101365
10:00+17юв6875100 0.1 1013735
13:00+16вюв5982100 1.8 1011453
16:00+15вюв81391100 12.3 1011540
19:00+17юв101574100 0.1 1010967
22:00+14юв81679100 0.3 1013755
21 апреля, ср
ср2101:00+14юв71579100 0.6 1013679
04:00+13вюв51084100 3.4 1015396
07:00+11ю71292100 1.4 1016499
10:00+11ююв5896100 12.9 1017343
13:00+13ю3584100 1.3 1018608
16:00+14юз4469100 1.4 1018737
19:00+12ююв348253 0.1 1019145
22:00+10ю338517 0.1 102133
22 апреля, чт
чт2201:00+10зюз228378 0.0 102112
04:00+9сз2280100 0.0 102113
07:00+10с338186 0.0 102154
10:00+14с226453 0.0 1022547
13:00+17сз2250100 0.0 10221522
16:00+18сз334688 0.0 10211995
19:00+17ссз2251100 0.0 102229
22:00+14всв346386 0.0 102297
23 апреля, пт
пт2301:00+11в347037 0.0 102254
04:00+10св3475100 0.0 102257
07:00+9св3781100 0.0 1022245
10:00+13ссв4663100 0.0 1022550
13:00+14ссв5657100 0.0 10211008
16:00+15ссв5657100 0.0 10211117
19:00+14с466689 0.0 1020214
22:00+10св22780 0.0 102020
24 апреля, сб
сб2401:00+9ссз22813 0.0 101912
04:00+8с22855 0.0 101813
07:00+10всв118148 0.0 101815
10:00+14ююз3464100 0.0 1018617
13:00+17ююз565331 0.1 10171457
16:00+19юз584282 0.6 10162561
19:00+16юз48606 0.0 1015246
22:00+12юз6117886 0.4 1017305